AZU2670 SBCF-SBGL

Flight info

Callsign AZU2670
Flight time N/A
Altitude 25000
Route MAVGU
Aircraft A320/M-SDE3FGHIRWY/LB1

Departure

Time 2026-04-29 01:04
Airport Tancredo Neves International Airport (SBCF)

Arrival

Time N/A
Airport Rio Galeão – Tom Jobim International Airport (SBGL)
Time Latitude Longitude Altitude Speed Heading
2026-04-29 00:44 -19.63321 -43.96407 2812 ft 0 kts 49°
2026-04-29 00:54 -19.63328 -43.96415 2810 ft 3 kts 45°
2026-04-29 00:55 -19.63343 -43.96427 2810 ft 3 kts 20°
2026-04-29 00:55 -19.63360 -43.96430 2811 ft 3 kts 339°
2026-04-29 00:55 -19.63372 -43.96423 2809 ft 1 kts 316°
2026-04-29 00:55 -19.63375 -43.96420 2811 ft 2 kts 316°
2026-04-29 00:57 -19.63354 -43.96442 2810 ft 9 kts 318°
2026-04-29 00:57 -19.63310 -43.96482 2808 ft 7 kts 319°
2026-04-29 00:57 -19.63276 -43.96513 2808 ft 6 kts 319°
2026-04-29 00:58 -19.63251 -43.96536 2808 ft 4 kts 320°
2026-04-29 00:58 -19.63226 -43.96558 2808 ft 9 kts 321°
2026-04-29 00:58 -19.63187 -43.96601 2808 ft 7 kts 285°
2026-04-29 00:58 -19.63202 -43.96635 2809 ft 5 kts 231°
2026-04-29 00:59 -19.63241 -43.96681 2807 ft 9 kts 226°
2026-04-29 00:59 -19.63266 -43.96732 2807 ft 7 kts 277°
2026-04-29 00:59 -19.63228 -43.96781 2807 ft 9 kts 318°
2026-04-29 00:59 -19.63184 -43.96820 2808 ft 7 kts 320°
2026-04-29 01:00 -19.63151 -43.96849 2807 ft 6 kts 318°
2026-04-29 01:00 -19.63107 -43.96892 2805 ft 9 kts 319°
2026-04-29 01:00 -19.63066 -43.96930 2806 ft 7 kts 319°
2026-04-29 01:00 -19.63035 -43.96958 2806 ft 5 kts 319°
2026-04-29 01:01 -19.63003 -43.96989 2808 ft 13 kts 319°
2026-04-29 01:01 -19.62931 -43.97056 2808 ft 14 kts 319°
2026-04-29 01:01 -19.62841 -43.97140 2831 ft 19 kts 317°
2026-04-29 01:01 -19.62739 -43.97235 2831 ft 20 kts 319°
2026-04-29 01:02 -19.62622 -43.97342 2831 ft 23 kts 320°
2026-04-29 01:02 -19.62498 -43.97455 2831 ft 24 kts 319°
2026-04-29 01:02 -19.62373 -43.97572 2831 ft 24 kts 319°
2026-04-29 01:02 -19.62286 -43.97662 2831 ft 16 kts 291°
2026-04-29 01:03 -19.62325 -43.97753 2830 ft 13 kts 231°
2026-04-29 01:03 -19.62404 -43.97770 2829 ft 13 kts 148°
2026-04-29 01:03 -19.62555 -43.97629 2831 ft 64 kts 139°
2026-04-29 01:03 -19.63096 -43.97130 2832 ft 140 kts 139°
2026-04-29 01:04 -19.63986 -43.96308 2917 ft 192 kts 139°
2026-04-29 01:04 -19.65008 -43.95371 3709 ft 197 kts 137°
2026-04-29 01:04 -19.66059 -43.94400 4514 ft 204 kts 136°
2026-04-29 01:04 -19.67156 -43.93378 4765 ft 222 kts 135°
2026-04-29 01:05 -19.68370 -43.92244 5040 ft 245 kts 136°
2026-04-29 01:05 -19.69708 -43.90996 5424 ft 264 kts 136°
2026-04-29 01:05 -19.71111 -43.89695 6152 ft 270 kts 137°
2026-04-29 01:05 -19.72536 -43.88380 6931 ft 273 kts 137°
2026-04-29 01:06 -19.73976 -43.87052 7702 ft 276 kts 137°
2026-04-29 01:06 -19.75434 -43.85710 8468 ft 279 kts 137°
2026-04-29 01:06 -19.76903 -43.84353 9233 ft 282 kts 138°
2026-04-29 01:06 -19.78387 -43.82978 9996 ft 285 kts 138°
2026-04-29 01:07 -19.79884 -43.81589 10453 ft 298 kts 138°
2026-04-29 01:07 -19.81594 -43.80196 10613 ft 322 kts 146°
2026-04-29 01:07 -19.83541 -43.78871 10857 ft 340 kts 146°
2026-04-29 01:07 -19.85561 -43.77505 11356 ft 347 kts 147°
2026-04-29 01:08 -19.87611 -43.76119 11945 ft 351 kts 146°
2026-04-29 01:08 -19.89716 -43.74762 12475 ft 358 kts 153°
2026-04-29 01:08 -19.92082 -43.73872 12990 ft 365 kts 167°
2026-04-29 01:08 -19.94627 -43.73638 13491 ft 371 kts 182°
2026-04-29 01:09 -19.97146 -43.74104 13996 ft 376 kts 198°
2026-04-29 01:09 -19.99585 -43.75133 14471 ft 379 kts 203°
2026-04-29 01:09 -20.02031 -43.76223 14977 ft 382 kts 203°
2026-04-29 01:09 -20.04494 -43.77318 15476 ft 385 kts 203°
2026-04-29 01:10 -20.07055 -43.78197 15950 ft 389 kts 192°
2026-04-29 01:10 -20.09736 -43.78676 16425 ft 393 kts 189°
2026-04-29 01:10 -20.12446 -43.79135 16918 ft 396 kts 190°
2026-04-29 01:10 -20.15181 -43.79605 17370 ft 400 kts 190°
2026-04-29 01:11 -20.17901 -43.80071 17833 ft 403 kts 190°
2026-04-29 01:11 -20.20680 -43.80549 18300 ft 406 kts 190°
2026-04-29 01:11 -20.23479 -43.81033 18707 ft 410 kts 190°
2026-04-29 01:11 -20.25350 -43.81357 18972 ft 412 kts 191°
2026-04-29 01:12 -20.29148 -43.82012 19507 ft 415 kts 190°
2026-04-29 01:12 -20.32009 -43.82505 19905 ft 418 kts 191°